Weather in Andreyevskoye

Russia / Vladimir Oblast     56°24′08″N   39°00′16″E
temp.,
°C
wind,
m/s
gust,
m/s
humid.,
%
clouds,
%
prec.,
mm/h
press.,
hPa
HPBL,
m
3 march, wed
wed300:00−2nnw6128796 0.5 1009694
03:00−7nw5129063 0.5 1012376
06:00−7nw6149276 0.0 1013485
09:00−6nw6138979 0.0 1014671
12:00−3wnw699169 0.1 1013701
15:00−1w6109184 0.2 10121036
18:00−2w61294100 0.3 1009740
21:00−2w61294100 0.5 1008870
4 march, thu
thu400:00−2w61393100 0.1 1004756
03:00−1wsw61396100 0.5 1002757
06:000w71397100 1.1 999816
09:00−2wnw61386100 3.6 9991021
12:00−2nw61081100 0.0 999874
15:00−2nw4682100 0.0 1000877
18:00−5nnw3792100 0.0 1000222
21:00−7nnw3593100 0.0 1001146
5 march, fri
fri500:00−9n239679 0.0 100241
03:00−12nnw239539 0.0 100427
06:00−13nnw22950 0.0 100521
09:00−10wnw11930 0.0 100676
12:00−5wsw238556 0.0 1007442
15:00−4ssw239378 0.3 1008334
18:00−6nnw3694100 1.9 1009229
21:00−11nw349369 1.9 101175
6 march, sat
sat600:00−12nw34940 0.0 101254
03:00−13nw359720 0.0 1014113
06:00−15nw489251 0.0 1015163
09:00−15nw499125 0.0 1016321
12:00−10nw47810 0.0 1016608
15:00−8w477933 0.1 10151077
18:00−9w3788100 0.1 1014197
21:00−12wsw469267 0.1 1012105
7 march, sun
sun700:00−12ssw5119420 0.0 1009235
03:00−9ssw7149360 0.1 1005768
06:00−7sw81593100 0.7 1000926
09:00−5sw91693100 2.3 9941138
12:00−3sw91694100 1.6 9921224
15:00−4w41284100 3.6 9911301
18:00−7wnw5147559 0.3 993749
21:00−8sw6157963 0.3 992496